Location: Newark
(44.9333°N, 0.5667°E)
Time: 22:46:24
(UTC+00:00)

N. Korean satellite - Pass Details

Date: 21 December 2019
Orbit: 454 x 507 km, 97.2° (Epoch: 21 January)

Event Time Altitude Azimuth Distance (km) Brightness Sun altitude
Rises 06:34:27 0° 1° (N) 2,507 10.0 -9.9°
Reaches altitude 10° 06:36:43 10° 348° (NNW) 1,619 8.9 -9.5°
Maximum altitude 06:39:38 26° 291° (WNW) 941 7.4 -9.0°
Drops below altitude 10° 06:42:32 10° 232° (SW) 1,594 8.9 -8.6°
Sets 06:44:45 0° 220° (SW) 2,459 10.0 -8.2°
